Location: Hokitika
(42.7170°S, 170.9670°E)
Time: 16:39:04
(UTC+13:00)

Aureole 3 Rocket - Pass Details

Date: 24 January 2019
Orbit: 399 x 1742 km, 82.5° (Epoch: 19 February)

Event Time Altitude Azimuth Distance (km) Brightness Sun altitude
Rises 21:42:13 0° 184° (S) 2,434 6.7 -6.2°
Reaches altitude 10° 21:44:06 10° 180° (S) 1,625 5.7 -6.5°
Maximum altitude 21:47:31 59° 99° (E) 618 2.9 -7.0°
Drops below altitude 10° 21:51:50 10° 18° (NNE) 2,055 5.3 -7.6°
Enters shadow 21:53:50 - 15° (NNE) 2,893 6.0 -7.9°
